Location: Unspecified
(0.0000°N, 0.0000°E)
Time: 02:34:04
(UTC+02:00)

OPAL - Visible Passes

Search period start: 25 October 2014 00:00
Search period end: 03 November 2014 23:00
Orbit: 744 x 797 km, 100.2° (Epoch: 24 October)

Date Brightness Start Highest point End Pass type
(mag) Time Alt. Az. Time Alt. Az. Time Alt. Az.
25 Oct 7.6 06:55:11 10° SSE 07:00:25 87° WSW 07:05:36 10° NNW visible
26 Oct 9.2 05:20:37 10° SE 05:25:17 34° ENE 05:29:55 10° NNE visible
27 Oct 10.4 04:48:08 10° E 04:50:10 12° ENE 04:52:12 10° NE visible
28 Oct 7.8 05:48:27 10° SSE 05:53:39 73° ENE 05:58:47 10° N visible
29 Oct 9.6 05:14:13 10° SE 05:18:31 26° ENE 05:22:45 10° NNE visible
30 Oct 7.7 06:16:56 10° S 06:22:00 53° WSW 06:27:00 10° NNW visible
31 Oct 8.3 05:41:47 10° SSE 05:46:52 56° ENE 05:51:53 10° N visible
01 Nov 10.0 05:07:58 10° ESE 05:11:44 20° ENE 05:15:27 10° NNE visible
02 Nov 7.6 06:10:03 10° S 06:15:13 69° WSW 06:20:18 10° NNW visible
03 Nov 8.8 05:35:11 10° SSE 05:40:04 43° ENE 05:44:53 10° N visible
